Year,Month,Day,Hour,Minute,Value (Times are PST for temperature in C)
2012,07,13,11,05,14.40
2012,07,13,11,06,14.30
2012,07,13,11,07,14.30
2012,07,13,11,08,14.30
2012,07,13,11,09,14.20
2012,07,13,11,10,14.20
2012,07,13,11,11,14.20
2012,07,13,11,12,14.20
2012,07,13,11,13,14.20
2012,07,13,11,14,14.30
2012,07,13,11,15,14.30
2012,07,13,11,16,14.40
2012,07,13,11,17,14.40
2012,07,13,11,18,14.50
2012,07,13,11,19,14.50
2012,07,13,11,20,14.60
2012,07,13,11,21,14.70
2012,07,13,11,22,14.70
2012,07,13,11,23,14.80
2012,07,13,11,24,14.90
2012,07,13,11,25,15.10
2012,07,13,11,26,15.20
2012,07,13,11,27,15.30
2012,07,13,11,28,15.40
2012,07,13,11,29,15.50
2012,07,13,11,30,15.60
2012,07,13,11,31,15.60
2012,07,13,11,32,15.60
2012,07,13,11,33,15.60
2012,07,13,11,34,15.60
2012,07,13,11,35,15.60
2012,07,13,11,36,15.60
2012,07,13,11,37,15.60
2012,07,13,11,38,15.60
2012,07,13,11,39,15.60
2012,07,13,11,40,15.60
2012,07,13,11,41,15.70
2012,07,13,11,42,15.70
2012,07,13,11,43,15.70
2012,07,13,11,44,15.80
2012,07,13,11,45,15.80
2012,07,13,11,46,15.80
2012,07,13,11,47,15.90
2012,07,13,11,48,15.90
2012,07,13,11,49,16.00
2012,07,13,11,50,16.10
2012,07,13,11,51,16.20
2012,07,13,11,52,16.20
2012,07,13,11,53,16.30
2012,07,13,11,54,16.30
2012,07,13,11,55,16.30
2012,07,13,11,56,16.30
2012,07,13,11,57,16.30
2012,07,13,11,58,16.30
2012,07,13,11,59,16.20
2012,07,13,12,00,16.10
2012,07,13,12,01,16.10
2012,07,13,12,02,16.10
2012,07,13,12,03,16.00
2012,07,13,12,04,16.10
2012,07,13,12,05,16.10
2012,07,13,12,06,16.10
2012,07,13,12,07,16.10
2012,07,13,12,08,16.20
2012,07,13,12,09,16.20
2012,07,13,12,10,16.20
2012,07,13,12,11,16.20
2012,07,13,12,12,16.20
2012,07,13,12,13,16.20
2012,07,13,12,14,16.30
2012,07,13,12,15,16.20
2012,07,13,12,16,16.20
2012,07,13,12,17,16.20
2012,07,13,12,18,16.10
2012,07,13,12,19,16.10
2012,07,13,12,20,16.10
2012,07,13,12,21,16.10
2012,07,13,12,22,16.10
2012,07,13,12,23,16.10
2012,07,13,12,24,16.10
2012,07,13,12,25,16.10
2012,07,13,12,26,16.10
2012,07,13,12,27,16.10
2012,07,13,12,28,16.10
2012,07,13,12,29,16.00
2012,07,13,12,30,16.00
2012,07,13,12,31,16.00
2012,07,13,12,32,15.90
2012,07,13,12,33,15.90
2012,07,13,12,34,15.90
2012,07,13,12,35,15.90
2012,07,13,12,36,15.90
2012,07,13,12,37,15.90
2012,07,13,12,38,15.90
2012,07,13,12,39,15.90
2012,07,13,12,40,16.00
2012,07,13,12,41,16.00
2012,07,13,12,42,16.10
2012,07,13,12,43,16.10
2012,07,13,12,44,16.20
2012,07,13,12,45,16.30
2012,07,13,12,46,16.30
2012,07,13,12,47,16.40
2012,07,13,12,48,16.40
2012,07,13,12,49,16.50
2012,07,13,12,50,16.60
2012,07,13,12,51,16.70
2012,07,13,12,52,16.70
2012,07,13,12,53,16.80
2012,07,13,12,54,16.90
2012,07,13,12,55,17.00
2012,07,13,12,56,17.10
2012,07,13,12,57,17.20
2012,07,13,12,58,17.30
2012,07,13,12,59,17.40
2012,07,13,13,00,17.40
2012,07,13,13,01,17.40
2012,07,13,13,02,17.30
2012,07,13,13,03,17.30
2012,07,13,13,04,17.20
2012,07,13,13,05,17.10
2012,07,13,13,06,17.10
2012,07,13,13,07,17.10
2012,07,13,13,08,17.10
2012,07,13,13,09,17.10
2012,07,13,13,10,17.10
2012,07,13,13,11,17.10
2012,07,13,13,12,17.10
2012,07,13,13,13,17.10
2012,07,13,13,14,17.20
2012,07,13,13,15,17.30
2012,07,13,13,16,17.40
2012,07,13,13,17,17.50
2012,07,13,13,18,17.60
2012,07,13,13,19,17.80
2012,07,13,13,20,17.90
2012,07,13,13,21,18.00
2012,07,13,13,22,18.10
2012,07,13,13,23,18.30
2012,07,13,13,24,18.40
2012,07,13,13,25,18.50
2012,07,13,13,26,18.60
2012,07,13,13,27,18.80
2012,07,13,13,28,18.80
2012,07,13,13,29,18.90
2012,07,13,13,30,19.00
2012,07,13,13,31,19.10
2012,07,13,13,32,19.20
2012,07,13,13,33,19.30
2012,07,13,13,34,19.40
2012,07,13,13,35,19.50
2012,07,13,13,36,19.50
2012,07,13,13,37,19.60
2012,07,13,13,38,19.60
2012,07,13,13,39,19.60
2012,07,13,13,40,19.60
2012,07,13,13,41,19.60
2012,07,13,13,42,19.60
2012,07,13,13,43,19.40
2012,07,13,13,44,19.30
2012,07,13,13,45,19.30
2012,07,13,13,46,19.30
2012,07,13,13,47,19.20
2012,07,13,13,48,19.10
2012,07,13,13,49,19.00
2012,07,13,13,50,18.90
2012,07,13,13,51,18.80
2012,07,13,13,52,18.70
2012,07,13,13,53,18.70
2012,07,13,13,54,18.60
2012,07,13,13,55,18.40
2012,07,13,13,56,18.30
2012,07,13,13,57,18.00
2012,07,13,13,58,17.80
2012,07,13,13,59,17.60
2012,07,13,14,00,17.40
2012,07,13,14,01,17.40
2012,07,13,14,02,17.30
2012,07,13,14,03,17.20
2012,07,13,14,04,17.00
2012,07,13,14,05,16.80
2012,07,13,14,06,16.50
2012,07,13,14,07,16.10
2012,07,13,14,08,15.70
2012,07,13,14,09,15.50
2012,07,13,14,10,15.40
2012,07,13,14,11,15.30
2012,07,13,14,12,15.30
2012,07,13,14,13,15.20
2012,07,13,14,14,15.20
2012,07,13,14,15,15.20
2012,07,13,14,16,15.20
2012,07,13,14,17,15.10
2012,07,13,14,18,14.80
2012,07,13,14,19,14.70
2012,07,13,14,20,14.70
2012,07,13,14,21,14.70
2012,07,13,14,22,14.70
2012,07,13,14,23,14.80
2012,07,13,14,24,14.80
2012,07,13,14,25,14.90
2012,07,13,14,26,14.90
2012,07,13,14,27,15.00
2012,07,13,14,28,15.00
2012,07,13,14,29,15.10
2012,07,13,14,30,15.20
2012,07,13,14,31,15.30
2012,07,13,14,32,15.40
2012,07,13,14,33,15.50
2012,07,13,14,34,15.60
2012,07,13,14,35,15.60
2012,07,13,14,36,15.70
2012,07,13,14,37,15.80
2012,07,13,14,38,15.90
2012,07,13,14,39,16.00
2012,07,13,14,40,16.20
2012,07,13,14,41,16.40
2012,07,13,14,42,16.50
2012,07,13,14,43,16.60
2012,07,13,14,44,16.70
2012,07,13,14,45,16.80
2012,07,13,14,46,17.00
2012,07,13,14,47,17.20
2012,07,13,14,48,17.50
2012,07,13,14,49,17.70
2012,07,13,14,50,18.00
2012,07,13,14,51,18.20
2012,07,13,14,52,18.40
2012,07,13,14,53,18.40
2012,07,13,14,54,18.50
2012,07,13,14,55,18.40
2012,07,13,14,56,18.40
2012,07,13,14,57,18.30
2012,07,13,14,58,18.30
2012,07,13,14,59,18.30
2012,07,13,15,00,18.30
2012,07,13,15,01,18.30
2012,07,13,15,02,18.30
2012,07,13,15,03,18.20
2012,07,13,15,04,18.10
2012,07,13,15,05,18.00
2012,07,13,15,06,18.00
2012,07,13,15,07,17.90
2012,07,13,15,08,17.90
2012,07,13,15,09,17.90
2012,07,13,15,10,17.80
2012,07,13,15,11,17.80
2012,07,13,15,12,17.70
2012,07,13,15,13,17.70
2012,07,13,15,14,17.70
2012,07,13,15,15,17.70
2012,07,13,15,16,17.70
2012,07,13,15,17,17.70
2012,07,13,15,18,17.70
2012,07,13,15,19,17.70
2012,07,13,15,20,17.70
2012,07,13,15,21,17.70
2012,07,13,15,22,17.80
2012,07,13,15,23,17.80
2012,07,13,15,24,17.90
2012,07,13,15,25,18.00
2012,07,13,15,26,18.10
2012,07,13,15,27,18.20
2012,07,13,15,28,18.30
2012,07,13,15,29,18.40
2012,07,13,15,30,18.50
2012,07,13,15,31,18.60
2012,07,13,15,32,18.60
2012,07,13,15,33,18.60
2012,07,13,15,34,18.60
2012,07,13,15,35,18.60
2012,07,13,15,36,18.70
2012,07,13,15,37,18.70
2012,07,13,15,38,18.70
2012,07,13,15,39,18.80
2012,07,13,15,40,18.80
2012,07,13,15,41,18.80
2012,07,13,15,42,18.80
2012,07,13,15,43,18.80
2012,07,13,15,44,18.80
2012,07,13,15,45,18.80
2012,07,13,15,46,18.70
2012,07,13,15,47,18.80
2012,07,13,15,48,18.80
2012,07,13,15,49,18.90
2012,07,13,15,50,19.00
2012,07,13,15,51,19.10
2012,07,13,15,52,19.10
2012,07,13,15,53,19.20
2012,07,13,15,54,19.30
2012,07,13,15,55,19.40
2012,07,13,15,56,19.50
2012,07,13,15,57,19.60
2012,07,13,15,58,19.60
2012,07,13,15,59,19.70
2012,07,13,16,00,19.70
2012,07,13,16,01,19.70
2012,07,13,16,02,19.70
2012,07,13,16,03,19.80
2012,07,13,16,04,19.80
2012,07,13,16,05,19.90
2012,07,13,16,06,19.90
2012,07,13,16,07,20.00
2012,07,13,16,08,20.10
2012,07,13,16,09,20.10
2012,07,13,16,10,20.10
2012,07,13,16,11,20.10
2012,07,13,16,12,20.20
2012,07,13,16,13,20.20
2012,07,13,16,14,20.30
2012,07,13,16,15,20.30
2012,07,13,16,16,20.20
2012,07,13,16,17,20.20
2012,07,13,16,18,20.10
2012,07,13,16,19,20.10
2012,07,13,16,20,20.00
2012,07,13,16,21,20.00
2012,07,13,16,22,20.00
2012,07,13,16,23,19.90
2012,07,13,16,24,19.90
2012,07,13,16,25,19.80
2012,07,13,16,26,19.80
2012,07,13,16,27,19.80
2012,07,13,16,28,19.90
2012,07,13,16,29,19.90
2012,07,13,16,30,19.80
2012,07,13,16,31,19.80
2012,07,13,16,32,19.70
2012,07,13,16,33,19.70
2012,07,13,16,34,19.70
2012,07,13,16,35,19.60
2012,07,13,16,36,19.50
2012,07,13,16,37,19.40
2012,07,13,16,38,19.30
2012,07,13,16,39,19.10
2012,07,13,16,40,19.00
2012,07,13,16,41,18.80
2012,07,13,16,42,18.70
2012,07,13,16,43,18.60
2012,07,13,16,44,18.50
2012,07,13,16,45,18.40
2012,07,13,16,46,18.30
2012,07,13,16,47,18.20
2012,07,13,16,48,18.00
2012,07,13,16,49,17.90
2012,07,13,16,50,17.80
2012,07,13,16,51,17.90
2012,07,13,16,52,17.90
2012,07,13,16,53,17.80
2012,07,13,16,54,17.70
2012,07,13,16,55,17.70
2012,07,13,16,56,17.60
2012,07,13,16,57,17.50
2012,07,13,16,58,17.30
2012,07,13,16,59,17.20
2012,07,13,17,00,17.20
2012,07,13,17,01,17.10
2012,07,13,17,02,17.00
2012,07,13,17,03,16.80
2012,07,13,17,04,16.60
2012,07,13,17,05,16.40
2012,07,13,17,06,16.20
2012,07,13,17,07,16.10
2012,07,13,17,08,16.00
2012,07,13,17,09,15.90
2012,07,13,17,10,15.80
2012,07,13,17,11,15.70
2012,07,13,17,12,15.70
2012,07,13,17,13,15.60
2012,07,13,17,14,15.50
2012,07,13,17,15,15.40
2012,07,13,17,16,15.30
2012,07,13,17,17,15.30
2012,07,13,17,18,15.40
2012,07,13,17,19,15.50
2012,07,13,17,20,15.60
2012,07,13,17,21,15.70
2012,07,13,17,22,15.80
2012,07,13,17,23,15.80
2012,07,13,17,24,15.80
2012,07,13,17,25,15.80
2012,07,13,17,26,15.90
2012,07,13,17,27,15.90
2012,07,13,17,28,15.80
2012,07,13,17,29,15.70
2012,07,13,17,30,15.60
2012,07,13,17,31,15.50
2012,07,13,17,32,15.40
2012,07,13,17,33,15.30
2012,07,13,17,34,15.30
2012,07,13,17,35,15.30
2012,07,13,17,36,15.30
2012,07,13,17,37,15.40
2012,07,13,17,38,15.40
2012,07,13,17,39,15.40
2012,07,13,17,40,15.50
2012,07,13,17,41,15.50
2012,07,13,17,42,15.50
2012,07,13,17,43,15.50
2012,07,13,17,44,15.60
2012,07,13,17,45,15.60
2012,07,13,17,46,15.60
2012,07,13,17,47,15.50
2012,07,13,17,48,15.50
2012,07,13,17,49,15.50
2012,07,13,17,50,15.60
2012,07,13,17,51,15.60
2012,07,13,17,52,15.70
2012,07,13,17,53,15.70
2012,07,13,17,54,15.70
2012,07,13,17,55,15.70
2012,07,13,17,56,15.70
2012,07,13,17,57,15.80
2012,07,13,17,58,15.80
2012,07,13,17,59,15.80
2012,07,13,18,00,15.80
2012,07,13,18,01,15.80
2012,07,13,18,02,15.80
2012,07,13,18,03,15.80
2012,07,13,18,04,15.80
2012,07,13,18,05,15.80
2012,07,13,18,06,15.80
2012,07,13,18,07,15.80
2012,07,13,18,08,15.80
2012,07,13,18,09,15.80
2012,07,13,18,10,15.80
2012,07,13,18,11,15.80
2012,07,13,18,12,15.80
2012,07,13,18,13,15.80
2012,07,13,18,14,15.90
2012,07,13,18,15,16.00
2012,07,13,18,16,16.10
2012,07,13,18,17,16.10
2012,07,13,18,18,16.10
2012,07,13,18,19,16.10
2012,07,13,18,20,16.10
2012,07,13,18,21,16.00
2012,07,13,18,22,16.00
2012,07,13,18,23,16.00
2012,07,13,18,24,16.10
2012,07,13,18,25,16.10
2012,07,13,18,26,16.10
2012,07,13,18,27,16.10
2012,07,13,18,28,16.20
2012,07,13,18,29,16.20
2012,07,13,18,30,16.30
2012,07,13,18,31,16.50
2012,07,13,18,32,16.60
2012,07,13,18,33,16.70
2012,07,13,18,34,16.80
2012,07,13,18,35,16.90
2012,07,13,18,36,17.00
2012,07,13,18,37,17.10
2012,07,13,18,38,17.20
2012,07,13,18,39,17.20
2012,07,13,18,40,17.20
2012,07,13,18,41,17.20
2012,07,13,18,42,17.10
2012,07,13,18,43,17.00
2012,07,13,18,44,16.90
2012,07,13,18,45,16.90
2012,07,13,18,46,16.90
2012,07,13,18,47,17.00
2012,07,13,18,48,17.10
2012,07,13,18,49,17.10
2012,07,13,18,50,17.20
2012,07,13,18,51,17.20
2012,07,13,18,52,17.20
2012,07,13,18,53,17.20
2012,07,13,18,54,17.30
2012,07,13,18,55,17.30
2012,07,13,18,56,17.30
2012,07,13,18,57,17.40
2012,07,13,18,58,17.40
2012,07,13,18,59,17.40
2012,07,13,19,00,17.40
2012,07,13,19,01,17.50
2012,07,13,19,02,17.50
2012,07,13,19,03,17.60
2012,07,13,19,04,17.70
2012,07,13,19,05,17.70
2012,07,13,19,06,17.70
2012,07,13,19,07,17.70
2012,07,13,19,08,17.60
2012,07,13,19,09,17.60
2012,07,13,19,10,17.50
2012,07,13,19,11,17.40
2012,07,13,19,12,17.30
2012,07,13,19,13,17.30
2012,07,13,19,14,17.20
2012,07,13,19,15,17.20
2012,07,13,19,16,17.20
2012,07,13,19,17,17.20
2012,07,13,19,18,17.20
2012,07,13,19,19,17.20
2012,07,13,19,20,17.30
2012,07,13,19,21,17.30
2012,07,13,19,22,17.30
2012,07,13,19,23,17.30
2012,07,13,19,24,17.30
2012,07,13,19,25,17.30
2012,07,13,19,26,17.40
2012,07,13,19,27,17.40
2012,07,13,19,28,17.50
2012,07,13,19,29,17.60
2012,07,13,19,30,17.60
2012,07,13,19,31,17.50
2012,07,13,19,32,17.50
2012,07,13,19,33,17.40
2012,07,13,19,34,17.40
2012,07,13,19,35,17.30
2012,07,13,19,36,17.40
2012,07,13,19,37,17.40
2012,07,13,19,38,17.50
2012,07,13,19,39,17.50
2012,07,13,19,40,17.50
2012,07,13,19,41,17.50
2012,07,13,19,42,17.50
2012,07,13,19,43,17.40
2012,07,13,19,44,17.40
2012,07,13,19,45,17.40
2012,07,13,19,46,17.50
2012,07,13,19,47,17.50
2012,07,13,19,48,17.50
2012,07,13,19,49,17.60
2012,07,13,19,50,17.70
2012,07,13,19,51,17.70
2012,07,13,19,52,17.80
2012,07,13,19,53,17.90
2012,07,13,19,54,17.90
2012,07,13,19,55,17.90
2012,07,13,19,56,18.00
2012,07,13,19,57,18.00
2012,07,13,19,58,18.10
2012,07,13,19,59,18.10
2012,07,13,20,00,18.00
2012,07,13,20,01,18.00
2012,07,13,20,02,17.90
2012,07,13,20,03,17.80
2012,07,13,20,04,17.70
2012,07,13,20,05,17.60
2012,07,13,20,06,17.30
2012,07,13,20,07,17.10
2012,07,13,20,08,16.90
2012,07,13,20,09,16.70
2012,07,13,20,10,16.60
2012,07,13,20,11,16.40
2012,07,13,20,12,16.30
2012,07,13,20,13,16.20
2012,07,13,20,14,16.20
2012,07,13,20,15,16.10
2012,07,13,20,16,16.00
2012,07,13,20,17,16.00
2012,07,13,20,18,15.90
2012,07,13,20,19,15.90
2012,07,13,20,20,15.90
2012,07,13,20,21,15.80
2012,07,13,20,22,15.80
2012,07,13,20,23,15.80
2012,07,13,20,24,15.70
2012,07,13,20,25,15.60
2012,07,13,20,26,15.50
2012,07,13,20,27,15.30
2012,07,13,20,28,15.20
2012,07,13,20,29,15.20
2012,07,13,20,30,15.10
2012,07,13,20,31,15.00
2012,07,13,20,32,14.90
2012,07,13,20,33,14.80
2012,07,13,20,34,14.60
2012,07,13,20,35,14.50
2012,07,13,20,36,14.40
2012,07,13,20,37,14.30
2012,07,13,20,38,14.20
2012,07,13,20,39,14.10
2012,07,13,20,40,13.90
2012,07,13,20,41,13.80
2012,07,13,20,42,13.70
2012,07,13,20,43,13.60
2012,07,13,20,44,13.60
2012,07,13,20,45,13.50
2012,07,13,20,46,13.50
2012,07,13,20,47,13.50
2012,07,13,20,48,13.50
2012,07,13,20,49,13.60
2012,07,13,20,50,13.70
2012,07,13,20,51,13.80
2012,07,13,20,52,13.90
2012,07,13,20,53,14.10
2012,07,13,20,54,14.30
2012,07,13,20,55,14.50
2012,07,13,20,56,14.60
2012,07,13,20,57,14.80
2012,07,13,20,58,14.90
2012,07,13,20,59,14.90
2012,07,13,21,00,15.00
2012,07,13,21,01,15.00
2012,07,13,21,02,15.20
2012,07,13,21,03,15.40
2012,07,13,21,04,15.60
2012,07,13,21,05,15.60
2012,07,13,21,06,15.50
2012,07,13,21,07,15.40
2012,07,13,21,08,15.40
2012,07,13,21,09,15.40
2012,07,13,21,10,15.40
2012,07,13,21,11,15.50
2012,07,13,21,12,15.50
2012,07,13,21,13,15.60
2012,07,13,21,14,15.60
2012,07,13,21,15,15.60
2012,07,13,21,16,15.60
2012,07,13,21,17,15.60
2012,07,13,21,18,15.60
2012,07,13,21,19,15.60
2012,07,13,21,20,15.60
2012,07,13,21,21,15.60
2012,07,13,21,22,15.60
2012,07,13,21,23,15.60
2012,07,13,21,24,15.60
2012,07,13,21,25,15.60
2012,07,13,21,26,15.60
2012,07,13,21,27,15.60
2012,07,13,21,28,15.60
2012,07,13,21,29,15.60
2012,07,13,21,30,15.60
2012,07,13,21,31,15.60
2012,07,13,21,32,15.60
2012,07,13,21,33,15.50
2012,07,13,21,34,15.50
2012,07,13,21,35,15.40
2012,07,13,21,36,15.20
2012,07,13,21,37,15.00
2012,07,13,21,38,14.80
2012,07,13,21,39,14.60
2012,07,13,21,40,14.40
2012,07,13,21,41,14.20
2012,07,13,21,42,14.00
2012,07,13,21,43,13.80
2012,07,13,21,44,13.60
2012,07,13,21,45,13.40
2012,07,13,21,46,13.20
2012,07,13,21,47,13.00
2012,07,13,21,48,12.90
2012,07,13,21,49,12.80
2012,07,13,21,50,12.70
2012,07,13,21,51,12.60
2012,07,13,21,52,12.50
2012,07,13,21,53,12.40
2012,07,13,21,54,12.40
2012,07,13,21,55,12.40
2012,07,13,21,56,12.30
2012,07,13,21,57,12.30
2012,07,13,21,58,12.30
2012,07,13,21,59,12.30
2012,07,13,22,00,12.30
2012,07,13,22,01,12.30
2012,07,13,22,02,12.30
2012,07,13,22,03,12.30
2012,07,13,22,04,12.30
2012,07,13,22,05,12.30
2012,07,13,22,06,12.30
2012,07,13,22,07,12.30
2012,07,13,22,08,12.30
2012,07,13,22,09,12.20
2012,07,13,22,10,12.20
2012,07,13,22,11,12.20
2012,07,13,22,12,12.20
2012,07,13,22,13,12.20
2012,07,13,22,14,12.20
2012,07,13,22,15,12.20
2012,07,13,22,16,12.20
2012,07,13,22,17,12.20
2012,07,13,22,18,12.20
2012,07,13,22,19,12.20
2012,07,13,22,20,12.20
2012,07,13,22,21,12.10
2012,07,13,22,22,12.10
2012,07,13,22,23,12.10
2012,07,13,22,24,12.10
2012,07,13,22,25,12.10
2012,07,13,22,26,12.10
2012,07,13,22,27,12.10
2012,07,13,22,28,12.10
2012,07,13,22,29,12.20
2012,07,13,22,30,12.20
2012,07,13,22,31,12.20
2012,07,13,22,32,12.20
2012,07,13,22,33,12.10
2012,07,13,22,34,12.10
2012,07,13,22,35,12.10
2012,07,13,22,36,12.10
2012,07,13,22,37,12.10
2012,07,13,22,38,12.10
2012,07,13,22,39,12.10
2012,07,13,22,40,12.10
2012,07,13,22,41,12.10
2012,07,13,22,42,12.10
2012,07,13,22,43,12.10
2012,07,13,22,44,12.10
2012,07,13,22,45,12.10
2012,07,13,22,46,12.10
2012,07,13,22,47,12.10
2012,07,13,22,48,12.00
2012,07,13,22,49,12.00
2012,07,13,22,50,12.00
2012,07,13,22,51,12.00
2012,07,13,22,52,12.00
2012,07,13,22,53,12.00
2012,07,13,22,54,12.00
2012,07,13,22,55,12.00
2012,07,13,22,56,11.90
2012,07,13,22,57,11.90
2012,07,13,22,58,11.90
2012,07,13,22,59,11.90
2012,07,13,23,00,11.90
2012,07,13,23,01,11.90
2012,07,13,23,02,11.90
2012,07,13,23,03,11.90
2012,07,13,23,04,11.90
2012,07,13,23,05,11.90
2012,07,13,23,06,11.90
2012,07,13,23,07,11.90
2012,07,13,23,08,11.90
2012,07,13,23,09,11.90
2012,07,13,23,10,11.90
2012,07,13,23,11,11.90
2012,07,13,23,12,11.90
2012,07,13,23,13,11.90
2012,07,13,23,14,11.90
2012,07,13,23,15,11.90
2012,07,13,23,16,12.00
2012,07,13,23,17,11.90
2012,07,13,23,18,12.00
2012,07,13,23,19,12.00
2012,07,13,23,20,12.00
2012,07,13,23,21,12.00
2012,07,13,23,22,12.00
2012,07,13,23,23,12.00
2012,07,13,23,24,12.00
2012,07,13,23,25,12.00
2012,07,13,23,26,11.90
2012,07,13,23,27,11.90
2012,07,13,23,28,11.90
2012,07,13,23,29,12.00
2012,07,13,23,30,12.00
2012,07,13,23,31,12.00
2012,07,13,23,32,12.00
2012,07,13,23,33,12.10
2012,07,13,23,34,12.10
2012,07,13,23,35,12.10
2012,07,13,23,36,12.10
2012,07,13,23,37,12.20
2012,07,13,23,38,12.10
2012,07,13,23,39,12.10
2012,07,13,23,40,12.10
2012,07,13,23,41,12.00
2012,07,13,23,42,12.00
2012,07,13,23,43,11.90
2012,07,13,23,44,11.90
2012,07,13,23,45,11.90
2012,07,13,23,46,11.90
2012,07,13,23,47,11.90
2012,07,13,23,48,11.90
2012,07,13,23,49,12.00
2012,07,13,23,50,11.90
2012,07,13,23,51,11.90
2012,07,13,23,52,11.90
2012,07,13,23,53,11.90
2012,07,13,23,54,11.90
2012,07,13,23,55,11.90
2012,07,13,23,56,11.90
2012,07,13,23,57,11.90
2012,07,13,23,58,11.90
2012,07,13,23,59,11.80
